Location: American Medical Response
(33.3472°N, 96.5511°W)
Time: 10:55:35
(UTC+00:00)

Cosmos 1805 Rocket - Pass Details

Date: 07 July 2022
Orbit: 605 x 629 km, 82.5° (Epoch: 10 August)

Event Time Altitude Azimuth Distance (km) Brightness Sun altitude
Exits shadow 08:15:13 15° 101° (E) 1,689 5.9 -28.8°
Maximum altitude 08:16:04 16° 87° (E) 1,649 6.0 -28.7°
Drops below altitude 10° 08:18:40 10° 51° (NE) 1,986 7.0 -28.5°
Sets 08:21:39 0° 29° (NNE) 2,891 8.3 -28.2°
